Location: Andrest
(43.3200°N, 0.0641°E)
Time: 05:34:03
(UTC+00:00)

SL-8 Rocket - Pass Details

Date: 25 April 2021
Orbit: 958 x 989 km, 82.9° (Epoch: 11 May)

Event Time Altitude Azimuth Distance (km) Brightness Sun altitude
Rises 22:54:54 0° 7° (N) 3,701 7.9 -31.4°
Reaches altitude 10° 22:58:42 10° 29° (NNE) 2,752 6.8 -31.6°
Maximum altitude 23:02:16 15° 64° (ENE) 2,377 6.1 -31.8°
Enters shadow 23:03:10 15° 74° (ENE) 2,403 6.0 -31.8°
